Highgate, VT

11:57 AM EDT on July 28, 2017 (GMT -0400)
Franklin County State

Weather History for KFSO - February, 2014

Change the Weather History Date:

Friday, February 21, 2014

  Actual Average (KPBG) Record (KPBG)
Temperature  
Mean Temperature 40 °F -  
Max Temperature 45 °F 32 °F 57 °F (1953)
Min Temperature 34 °F 14 °F -19 °F (1993)
Degree Days  
Heating Degree Days 26    
Moisture  
Dew Point 34 °F    
Average Humidity 84    
Maximum Humidity 91    
Minimum Humidity 68    
Precipitation  
Precipitation 0.00 in - - ()
Sea Level Pressure  
Sea Level Pressure 29.80 in    
Wind  
Wind Speed 7 mph (SE)    
Max Wind Speed 15 mph    
Max Gust Speed 22 mph    
Visibility 9 miles    
Events Rain    
Averages and records for this station are not official NWS values.
T = Trace of Precipitation, MM = Missing Value Source: NWS Daily Summary

Daily Weather History Graph

Daily Weather History Graph

Search for Another Location

Airport or City:

Trip Planner

Search our weather history database for the weather conditions in past years. The results will help you decide how hot, cold, wet, or windy it might be!

Date:

Astronomy

Feb. 21, 2014 Rise Set
Actual Time 6:43 AM EST 5:28 PM EST
Civil Twilight 6:13 AM EST 5:58 PM EST
Nautical Twilight 5:39 AM EST 6:32 PM EST
Astronomical Twilight 5:06 AM EST 7:06 PM EST
Moon No Moon Rise 9:48 AM EST (2/21)
Length of Visible Light 11h 44m
Length of Day
10h 45m
Waning Gibbous, 61% of the Moon is Illuminated
Feb 21
Waning Gibbous
Feb 22
Last Quarter
Mar 1
New
Mar 8
First Quarter
Mar 16
Full

Hourly Weather History & Observations

Time (EST) Temp. Windchill Dew Point Humidity Pressure Visibility Wind Dir Wind Speed Gust Speed Precip Events Conditions
12:15 AM 38.3 °F 33.2 °F 34.9 °F 87% 30.06 in 10.0 mi ESE 6.9 mph - N/A   Overcast
12:35 AM 38.3 °F 34.8 °F 34.9 °F 87% 30.04 in 10.0 mi ESE 4.6 mph - N/A   Overcast
12:55 AM 37.9 °F 34.4 °F 34.3 °F 87% 30.03 in 10.0 mi ESE 4.6 mph - N/A   Mostly Cloudy
1:15 AM 37.9 °F 34.4 °F 34.3 °F 87% 30.03 in 10.0 mi East 4.6 mph - N/A   Scattered Clouds
1:35 AM 37.0 °F 33.3 °F 33.6 °F 87% 30.03 in 10.0 mi East 4.6 mph - N/A   Scattered Clouds
1:55 AM 37.0 °F 33.3 °F 33.8 °F 88% 30.01 in 10.0 mi East 4.6 mph - N/A   Clear
2:15 AM 37.0 °F 34.5 °F 33.8 °F 88% 30.02 in 10.0 mi ESE 3.5 mph - N/A   Clear
2:35 AM 37.0 °F 32.4 °F 33.8 °F 88% 30.01 in 10.0 mi ESE 5.8 mph - N/A   Scattered Clouds
2:55 AM 37.4 °F 32.1 °F 33.8 °F 87% 30.01 in 10.0 mi ESE 6.9 mph - N/A   Scattered Clouds
3:15 AM 38.3 °F 33.2 °F 34.3 °F 86% 30.00 in 10.0 mi East 6.9 mph - N/A   Mostly Cloudy
3:35 AM 38.3 °F 32.5 °F 34.2 °F 85% 29.99 in 10.0 mi ESE 8.1 mph - N/A   Overcast
3:55 AM 38.3 °F 31.9 °F 33.1 °F 81% 29.97 in 10.0 mi ESE 9.2 mph - N/A   Overcast
4:15 AM 38.3 °F 31.4 °F 32.4 °F 79% 29.97 in 10.0 mi ESE 10.4 mph - N/A   Overcast
4:35 AM 38.3 °F 30.9 °F 32.4 °F 79% 29.95 in 7.0 mi SE 11.5 mph - N/A   Overcast
4:55 AM 38.3 °F 30.9 °F 33.3 °F 82% 29.94 in 10.0 mi SE 11.5 mph 18.4 mph N/A   Overcast
5:15 AM 38.3 °F 30.1 °F 33.4 °F 83% 29.92 in 10.0 mi ESE 13.8 mph 19.6 mph N/A   Mostly Cloudy
5:35 AM 38.3 °F 33.2 °F 33.3 °F 82% 29.92 in 10.0 mi ESE 6.9 mph - N/A   Mostly Cloudy
5:55 AM 38.7 °F 31.4 °F 32.9 °F 80% 29.92 in 10.0 mi ESE 11.5 mph - N/A   Overcast
6:15 AM 38.3 °F 30.9 °F 32.9 °F 81% 29.93 in 7.0 mi SE 11.5 mph - N/A   Overcast
6:35 AM 38.3 °F 31.9 °F 33.4 °F 83% 29.91 in 7.0 mi ESE 9.2 mph - N/A   Overcast
6:55 AM 38.3 °F 31.9 °F 33.8 °F 84% 29.91 in 4.0 mi SE 9.2 mph - N/A   Overcast
7:15 AM 38.3 °F 32.5 °F 34.0 °F 84% 29.89 in 10.0 mi SE 8.1 mph - N/A   Overcast
7:35 AM 38.3 °F 34.8 °F 34.2 °F 85% 29.89 in 10.0 mi SE 4.6 mph - N/A   Overcast
7:55 AM 38.3 °F 33.2 °F 34.3 °F 86% 29.88 in 10.0 mi SE 6.9 mph - N/A   Overcast
8:15 AM 38.3 °F 32.5 °F 34.3 °F 86% 29.87 in 10.0 mi SE 8.1 mph - N/A   Overcast
8:35 AM 38.3 °F 32.5 °F 34.2 °F 85% 29.87 in 10.0 mi SE 8.1 mph - N/A   Overcast
8:55 AM 41.0 °F 36.4 °F 36.3 °F 83% 29.82 in 10.0 mi ESE 6.9 mph - N/A   Overcast
9:15 AM 41.0 °F 35.2 °F 36.0 °F 82% 29.80 in 10.0 mi SSE 9.2 mph - N/A   Overcast
9:35 AM 41.0 °F 33.9 °F 35.4 °F 81% 29.78 in 10.0 mi SE 12.7 mph - N/A   Overcast
9:55 AM 42.1 °F 36.1 °F 34.7 °F 75% 29.76 in 10.0 mi SE 10.4 mph - N/A   Overcast
10:15 AM 41.5 °F 35.0 °F 34.2 °F 75% 29.75 in 7.0 mi SSE 11.5 mph - N/A Rain Rain
10:35 AM 41.0 °F 36.4 °F 34.3 °F 77% 29.75 in 10.0 mi SSE 6.9 mph - N/A   Light Drizzle
10:55 AM 42.1 °F 39.2 °F 36.5 °F 81% 29.75 in 10.0 mi SSE 4.6 mph - N/A   Overcast
11:15 AM 41.0 °F 34.7 °F 35.1 °F 79% 29.74 in 10.0 mi SSE 10.4 mph - N/A   Overcast
11:35 AM 42.1 °F 35.7 °F 34.5 °F 75% 29.73 in 10.0 mi SSE 11.5 mph - N/A   Overcast
11:55 AM 42.3 °F 35.9 °F 33.8 °F 72% 29.69 in 10.0 mi SSE 11.5 mph - N/A   Overcast
12:15 PM 44.6 °F 37.8 °F 35.2 °F 70% 29.69 in 10.0 mi South 15.0 mph 21.9 mph N/A   Overcast
12:35 PM 45.0 °F 38.9 °F 35.1 °F 68% 29.68 in 10.0 mi South 12.7 mph 18.4 mph N/A   Overcast
12:55 PM 44.4 °F 40.5 °F 35.1 °F 70% 29.66 in 10.0 mi SSE 6.9 mph - N/A   Overcast
1:15 PM 45.5 °F 40.8 °F 35.4 °F 68% 29.64 in 10.0 mi South 9.2 mph 16.1 mph N/A   Overcast
1:35 PM 43.9 °F 38.3 °F 34.5 °F 70% 29.63 in 10.0 mi South 10.4 mph 16.1 mph N/A   Overcast
1:55 PM 42.6 °F 39.0 °F 33.6 °F 70% 29.61 in 5.0 mi SW 5.8 mph - N/A   Overcast
2:15 PM 41.0 °F 38.0 °F 35.6 °F 81% 29.60 in 10.0 mi South 4.6 mph - N/A   Overcast
2:35 PM 41.0 °F 37.1 °F 36.7 °F 85% 29.60 in 10.0 mi SW 5.8 mph - N/A   Overcast
2:55 PM 41.0 °F 38.0 °F 36.9 °F 85% 29.60 in 1.5 mi South 4.6 mph - N/A   Unknown
3:15 PM 41.0 °F 38.0 °F 37.0 °F 86% 29.62 in 2.5 mi SW 4.6 mph - N/A   Overcast
3:35 PM 41.0 °F 37.1 °F 37.4 °F 87% 29.63 in 7.0 mi SW 5.8 mph - N/A   Overcast
3:55 PM 41.0 °F 36.4 °F 37.4 °F 87% 29.66 in 4.0 mi SSW 6.9 mph - N/A   Overcast
4:15 PM 41.0 °F 37.1 °F 37.4 °F 87% 29.72 in 2.0 mi West 5.8 mph - N/A   Unknown
4:35 PM 41.0 °F - 37.4 °F 87% 29.72 in 1.8 mi Calm Calm - N/A   Overcast
4:55 PM 39.0 °F 34.8 °F 35.2 °F 86% 29.72 in 2.5 mi WNW 5.8 mph - N/A   Overcast
5:15 PM 38.3 °F - 34.7 °F 87% 29.73 in 5.0 mi Calm Calm - N/A   Overcast
5:35 PM 38.3 °F - 34.7 °F 87% 29.75 in 4.0 mi Calm Calm - N/A   Overcast
5:55 PM 38.3 °F 35.9 °F 34.7 °F 87% 29.75 in 7.0 mi East 3.5 mph - N/A   Overcast
6:15 PM 37.0 °F 34.5 °F 34.0 °F 89% 29.75 in 7.0 mi SE 3.5 mph - N/A   Overcast
6:35 PM 35.6 °F 27.5 °F 32.7 °F 89% 29.74 in 5.0 mi SE 11.5 mph - N/A   Overcast
6:55 PM 35.6 °F 29.2 °F 32.9 °F 90% 29.74 in 10.0 mi ESE 8.1 mph - N/A   Overcast
7:15 PM 35.6 °F 28.6 °F 32.9 °F 90% 29.73 in 10.0 mi SE 9.2 mph - N/A   Overcast
7:35 PM 35.6 °F 30.7 °F 32.9 °F 90% 29.72 in 10.0 mi SE 5.8 mph - N/A   Mostly Cloudy
7:55 PM 35.6 °F 31.7 °F 32.9 °F 90% 29.72 in 10.0 mi SE 4.6 mph - N/A   Clear
8:15 PM 35.6 °F 30.7 °F 32.9 °F 90% 29.71 in 10.0 mi ESE 5.8 mph - N/A   Clear
8:35 PM 35.6 °F 30.7 °F 32.9 °F 90% 29.72 in 10.0 mi SE 5.8 mph - N/A   Clear
8:55 PM 35.6 °F - 32.9 °F 90% 29.72 in 10.0 mi Calm Calm - N/A   Clear
9:15 PM 35.6 °F - 32.9 °F 90% 29.72 in 10.0 mi Calm Calm - N/A   Clear
9:35 PM 34.7 °F 30.6 °F 32.2 °F 91% 29.72 in 10.0 mi SE 4.6 mph - N/A   Clear
9:55 PM 35.4 °F 32.6 °F 32.9 °F 91% 29.72 in 10.0 mi SSE 3.5 mph - N/A   Scattered Clouds
10:15 PM 35.6 °F 32.8 °F 32.9 °F 90% 29.71 in 10.0 mi SSW 3.5 mph - N/A   Mostly Cloudy
10:35 PM 35.6 °F 31.7 °F 32.9 °F 90% 29.72 in 10.0 mi SW 4.6 mph - N/A   Overcast
10:55 PM 35.6 °F - 32.9 °F 90% 29.72 in 10.0 mi Calm Calm - N/A   Overcast
11:15 PM 35.6 °F 31.7 °F 33.1 °F 91% 29.72 in 10.0 mi SSW 4.6 mph - N/A   Mostly Cloudy
11:35 PM 35.6 °F 29.9 °F 32.9 °F 90% 29.71 in 10.0 mi South 6.9 mph - N/A   Mostly Cloudy
11:55 PM 36.5 °F 31.0 °F 33.8 °F 90% 29.72 in 10.0 mi South 6.9 mph - N/A   Mostly Cloudy